Williams, AZ

8:36 AM MST on May 29, 2017 (GMT -0700)
Williams

Weather History for KCMR - March, 2014

Change the Weather History Date:

Tuesday, March 25, 2014

  Actual Average (K40G) Record (K40G)
Temperature  
Mean Temperature 48 °F -  
Max Temperature 64 °F 54 °F 68 °F (2004)
Min Temperature 32 °F 44 °F 44 °F (2002)
Degree Days  
Heating Degree Days 17    
Moisture  
Dew Point 9 °F    
Average Humidity 22    
Maximum Humidity 42    
Minimum Humidity 11    
Precipitation  
Precipitation 0.00 in - - ()
Sea Level Pressure  
Sea Level Pressure 30.11 in    
Wind  
Wind Speed 10 mph (SSE)    
Max Wind Speed 18 mph    
Max Gust Speed 24 mph    
Visibility 10 miles    
Events      
Averages and records for this station are not official NWS values.
T = Trace of Precipitation, MM = Missing Value Source: NWS Daily Summary

Daily Weather History Graph

Daily Weather History Graph

Search for Another Location

Airport or City:

Trip Planner

Search our weather history database for the weather conditions in past years. The results will help you decide how hot, cold, wet, or windy it might be!

Date:

Astronomy

Mar. 25, 2014 Rise Set
Actual Time 6:25 AM MST 6:44 PM MST
Civil Twilight 5:59 AM MST 7:10 PM MST
Nautical Twilight 5:30 AM MST 7:39 PM MST
Astronomical Twilight 4:59 AM MST 8:10 PM MST
Moon 2:39 AM MST (3/25) 1:29 PM MST (3/25)
Length of Visible Light 13h 10m
Length of Day
12h 19m
Waning Crescent, 31% of the Moon is Illuminated
Mar 25
Waning Crescent
Mar 30
New
Apr 7
First Quarter
Apr 15
Full
Apr 22
Last Quarter

Hourly Weather History & Observations

Time (MST) Temp. Windchill Dew Point Humidity Pressure Visibility Wind Dir Wind Speed Gust Speed Precip Events Conditions
12:15 AM 37.4 °F 30.8 °F -0.4 °F 20% 30.25 in 10.0 mi SE 9.2 mph - N/A   Clear
12:35 AM 39.2 °F 32.5 °F -0.4 °F 19% 30.25 in 10.0 mi SE 10.4 mph - N/A   Clear
12:55 AM 37.4 °F 30.8 °F -0.4 °F 20% 30.25 in 10.0 mi SE 9.2 mph - N/A   Clear
1:15 AM 37.4 °F 30.3 °F -0.4 °F 20% 30.24 in 10.0 mi SSE 10.4 mph - N/A   Clear
1:35 AM 37.4 °F 30.3 °F -0.4 °F 20% 30.24 in 10.0 mi SE 10.4 mph - N/A   Clear
1:55 AM 33.8 °F 25.8 °F 1.4 °F 25% 30.23 in 10.0 mi SSE 10.4 mph - N/A   Clear
2:15 AM 32.0 °F 23.6 °F 1.4 °F 27% 30.23 in 10.0 mi SSE 10.4 mph - N/A   Clear
2:35 AM 33.8 °F 25.8 °F -0.4 °F 23% 30.22 in 10.0 mi SE 10.4 mph - N/A   Clear
2:55 AM 32.0 °F 23.0 °F 1.4 °F 27% 30.21 in 10.0 mi SE 11.5 mph - N/A   Clear
3:15 AM 32.0 °F 23.0 °F 1.4 °F 27% 30.21 in 10.0 mi SE 11.5 mph - N/A   Clear
3:35 AM 32.0 °F 24.2 °F 1.4 °F 27% 30.20 in 10.0 mi SE 9.2 mph - N/A   Clear
3:55 AM 35.6 °F 28.0 °F 1.4 °F 24% 30.20 in 10.0 mi SE 10.4 mph - N/A   Clear
4:15 AM 33.8 °F 25.8 °F 1.4 °F 25% 30.20 in 10.0 mi SE 10.4 mph - N/A   Clear
4:35 AM 35.6 °F 28.6 °F 1.4 °F 24% 30.20 in 10.0 mi SE 9.2 mph - N/A   Clear
4:55 AM 35.6 °F 28.0 °F 1.4 °F 24% 30.19 in 10.0 mi SE 10.4 mph - N/A   Clear
5:15 AM 35.6 °F 28.0 °F 1.4 °F 24% 30.19 in 10.0 mi SSE 10.4 mph - N/A   Clear
5:35 AM 32.0 °F 23.6 °F 1.4 °F 27% 30.20 in 10.0 mi SSE 10.4 mph - N/A   Clear
5:55 AM 33.8 °F 25.3 °F 1.4 °F 25% 30.20 in 10.0 mi SE 11.5 mph - N/A   Clear
6:15 AM 35.6 °F 28.6 °F 1.4 °F 24% 30.20 in 10.0 mi SE 9.2 mph - N/A   Clear
6:35 AM 37.4 °F 30.3 °F 1.4 °F 22% 30.20 in 10.0 mi SSE 10.4 mph - N/A   Clear
6:55 AM 39.2 °F 32.5 °F 1.4 °F 21% 30.20 in 10.0 mi SSE 10.4 mph - N/A   Clear
7:15 AM 42.8 °F 37.0 °F 1.4 °F 18% 30.20 in 10.0 mi SE 10.4 mph - N/A   Clear
7:35 AM 44.6 °F 38.8 °F 1.4 °F 17% 30.20 in 10.0 mi SE 11.5 mph - N/A   Clear
7:55 AM 48.2 °F - 3.2 °F 16% 30.19 in 10.0 mi SE 9.2 mph - N/A   Clear
8:15 AM 50.0 °F - 5.0 °F 16% 30.19 in 10.0 mi ESE 11.5 mph - N/A   Clear
8:35 AM 53.6 °F - 3.2 °F 13% 30.19 in 10.0 mi SE 12.7 mph 16.1 mph N/A   Clear
8:55 AM 55.4 °F - 3.2 °F 12% 30.18 in 10.0 mi ESE 15.0 mph 20.7 mph N/A   Clear
9:15 AM 57.2 °F - 3.2 °F 11% 30.18 in 10.0 mi ESE 13.8 mph 23.0 mph N/A   Clear
9:35 AM 59.0 °F - 5.0 °F 12% 30.18 in 10.0 mi SE 13.8 mph - N/A   Clear
9:55 AM 59.0 °F - 5.0 °F 12% 30.18 in 10.0 mi ESE 16.1 mph 21.9 mph N/A   Clear
10:15 AM 57.2 °F - 5.0 °F 12% 30.17 in 10.0 mi SE 11.5 mph 19.6 mph N/A   Partly Cloudy
10:35 AM 59.0 °F - 6.8 °F 13% 30.16 in 10.0 mi ESE 15.0 mph 18.4 mph N/A   Partly Cloudy
10:55 AM 59.0 °F - 8.6 °F 14% 30.16 in 10.0 mi SE 12.7 mph - N/A   Clear
11:15 AM 60.8 °F - 10.4 °F 14% 30.14 in 10.0 mi Calm Calm - N/A   Clear
11:35 AM 62.6 °F - 14.0 °F 15% 30.13 in 10.0 mi SE 13.8 mph 23.0 mph N/A   Partly Cloudy
11:55 AM 59.0 °F - 14.0 °F 17% 30.12 in 10.0 mi SSE 12.7 mph 18.4 mph N/A   Mostly Cloudy
12:15 PM 62.6 °F - 12.2 °F 14% 30.11 in 10.0 mi South 17.3 mph 24.2 mph N/A   Mostly Cloudy
12:35 PM 60.8 °F - 14.0 °F 16% 30.11 in 10.0 mi SSE 8.1 mph 19.6 mph N/A   Partly Cloudy
12:55 PM 60.8 °F - 14.0 °F 16% 30.09 in 10.0 mi SE 16.1 mph 23.0 mph N/A   Scattered Clouds
1:15 PM 62.6 °F - 14.0 °F 15% 30.08 in 10.0 mi South 12.7 mph 23.0 mph N/A   Partly Cloudy
1:35 PM 62.6 °F - 12.2 °F 14% 30.07 in 10.0 mi SW 13.8 mph 19.6 mph N/A   Scattered Clouds
1:55 PM 64.4 °F - 12.2 °F 13% 30.06 in 10.0 mi SSE 13.8 mph 24.2 mph N/A   Scattered Clouds
2:15 PM 60.8 °F - 10.4 °F 14% 30.05 in 10.0 mi South 11.5 mph 18.4 mph N/A   Partly Cloudy
2:35 PM 60.8 °F - 10.4 °F 14% 30.04 in 10.0 mi SW 10.4 mph - N/A   Partly Cloudy
2:55 PM 64.4 °F - 14.0 °F 14% 30.03 in 10.0 mi SW 16.1 mph 23.0 mph N/A   Mostly Cloudy
3:15 PM 62.6 °F - 14.0 °F 15% 30.03 in 10.0 mi South 9.2 mph 20.7 mph N/A   Scattered Clouds
3:35 PM 62.6 °F - 14.0 °F 15% 30.03 in 10.0 mi South 10.4 mph 21.9 mph N/A   Scattered Clouds
3:55 PM 62.6 °F - 12.2 °F 14% 30.02 in 10.0 mi South 16.1 mph 24.2 mph N/A   Partly Cloudy
4:15 PM 60.8 °F - 10.4 °F 14% 30.01 in 10.0 mi South 11.5 mph 20.7 mph N/A   Clear
4:35 PM 60.8 °F - 14.0 °F 16% 30.01 in 10.0 mi South 18.4 mph - N/A   Clear
4:55 PM 60.8 °F - 14.0 °F 16% 30.01 in 10.0 mi SW 8.1 mph 21.9 mph N/A   Clear
5:15 PM 57.2 °F - 15.8 °F 20% 30.01 in 10.0 mi SSW 11.5 mph 20.7 mph N/A   Clear
5:35 PM 57.2 °F - 17.6 °F 21% 30.01 in 10.0 mi WSW 16.1 mph - N/A   Clear
5:55 PM 53.6 °F - 17.6 °F 24% 30.01 in 10.0 mi WSW 11.5 mph - N/A   Clear
6:15 PM 53.6 °F - 17.6 °F 24% 30.01 in 10.0 mi WSW 6.9 mph - N/A   Clear
6:35 PM 50.0 °F - 17.6 °F 28% 30.01 in 10.0 mi SW 3.5 mph - N/A   Clear
6:55 PM 50.0 °F - 17.6 °F 28% 30.00 in 10.0 mi SW 4.6 mph - N/A   Clear
7:15 PM 48.2 °F - 17.6 °F 30% 30.00 in 10.0 mi SSW 4.6 mph - N/A   Clear
7:35 PM 46.4 °F 44.3 °F 17.6 °F 32% 30.00 in 10.0 mi SSE 4.6 mph - N/A   Clear
7:55 PM 42.8 °F 38.6 °F 17.6 °F 36% 30.00 in 10.0 mi SE 6.9 mph - N/A   Clear
8:15 PM 41.0 °F 36.4 °F 17.6 °F 39% 30.00 in 10.0 mi SSE 6.9 mph - N/A   Clear
8:35 PM 39.2 °F 35.0 °F 17.6 °F 42% 30.00 in 10.0 mi South 5.8 mph - N/A   Clear
8:55 PM 41.0 °F 35.8 °F 17.6 °F 39% 30.01 in 10.0 mi South 8.1 mph - N/A   Clear
9:15 PM 46.4 °F 42.4 °F 17.6 °F 32% 30.01 in 10.0 mi South 8.1 mph - N/A   Clear
9:35 PM 48.2 °F - 17.6 °F 30% 30.00 in 10.0 mi SSW 6.9 mph - N/A   Clear
9:55 PM 48.2 °F - 15.8 °F 27% 30.00 in 10.0 mi SSW 6.9 mph - N/A   Clear
10:15 PM 46.4 °F 43.5 °F 15.8 °F 29% 30.00 in 10.0 mi South 5.8 mph - N/A   Clear
10:35 PM 37.4 °F 32.1 °F 15.8 °F 41% 29.99 in 10.0 mi South 6.9 mph - N/A   Clear
10:55 PM 44.6 °F 40.2 °F 15.8 °F 31% 29.99 in 10.0 mi South 8.1 mph - N/A   Clear
11:15 PM 44.6 °F 39.7 °F 15.8 °F 31% 29.98 in 10.0 mi South 9.2 mph - N/A   Clear
11:35 PM 44.6 °F 39.7 °F 15.8 °F 31% 29.98 in 10.0 mi South 9.2 mph - N/A   Clear
11:55 PM 41.0 °F 35.8 °F 15.8 °F 36% 29.98 in 10.0 mi South 8.1 mph - N/A   Clear